RH
46 47 43 32 26 24 26 26 30 33 39 43 49 53 57 57 60 69 59 58 50 41 44 52 66 60 92
48 56 45 33 30 27 26 29 34 40 43 48 53 55 59 63 67 69 64 58 64 62 58 56 66 90 82
56 63 45 34 30 27 31 35 44 45 49 56 59 63 66 66 60 61 64 69 69 67 70 73 65 87 81
65 57 43 37 31 34 36 46 51 54 60 67 75 76 60 53 59 60 60 61 62 61 61 63 70 70 76
67 63 44 37 39 40 46 53 60 63 70 73 64 56 56 61 61 61 61 59 58 61 67 65 64 64 70
85 63 58 47 53 57 57 59 62 60 60 58 56 58 59 60 61 62 62 63 68 71 72 76 77 73 67
83 72 57 53 63 74 69 65 61 62 58 59 62 63 65 67 68 68 70 71 72 73 76 78 76 71 68
75 80 56 58 62 70 81 82 74 68 67 63 63 65 66 67 73 75 73 71 72 75 79 82 74 63 54
92 73 64 63 66 67 71 79 85 83 78 76 72 72 76 79 78 75 70 71 72 77 81 74 58 54 49
90 69 64 72 71 70 72 71 72 74 78 75 76 77 76 76 74 73 74 72 76 79 70 51 49 47 44
82 68 62 64 75 79 79 79 78 72 68 69 74 79 75 74 72 73 76 77 76 61 45 42 37 34 34
81 74 68 70 75 80 78 76 83 77 73 71 74 76 72 72 75 80 77 73 61 42 38 29 24 24 25
81 73 69 74 76 75 79 81 86 84 74 73 78 75 75 83 90 80 71 48 36 32 25 23 22 22 24
71 69 76 74 66 75 80 84 85 86 81 76 76 80 88 94 87 66 38 34 27 21 20 19 21 23 24
73 80 78 70 72 80 88 90 89 86 80 77 78 84 88 84 60 34 30 24 20 18 19 22 21 18 16
80 83 78 82 90 93 93 91 87 82 77 81 83 84 82 54 37 29 20 19 17 19 20 17 14 10 12
87 87 90 97 98 96 96 90 83 77 78 76 76 69 43 38 32 19 17 16 20 23 15 13 15 11 12
Wind_Speed
98 90 90 88 85 81 78 72 66 61 58 55 53 50 49 48 45 47 45 38 36 31 27 23 17 46 60
85 84 86 83 80 77 71 66 62 56 53 51 49 48 47 46 44 42 40 36 38 37 33 26 22 33 58
83 83 83 79 76 70 64 59 56 51 49 48 47 48 48 45 41 37 38 39 38 36 36 34 29 34 33
81 78 78 76 69 63 58 54 50 49 47 47 48 48 46 42 42 41 38 38 38 38 38 38 38 38 40
74 76 74 69 61 56 54 52 50 49 49 48 46 45 45 43 42 42 42 43 44 44 44 45 46 45 47
74 75 72 64 57 54 50 46 45 44 44 47 48 47 46 47 46 47 49 50 51 52 52 51 52 53 54
73 75 69 61 56 54 53 51 51 51 50 49 50 51 51 52 53 55 57 58 58 59 60 60 58 56 58
72 70 69 61 57 56 56 57 57 56 56 55 55 56 57 59 60 61 63 63 64 65 66 66 64 63 62
69 69 68 66 60 58 58 59 59 60 61 61 60 60 61 62 64 67 68 68 70 71 71 69 65 63 62
70 69 67 63 62 61 60 61 61 63 64 66 66 66 65 67 69 71 71 72 74 74 72 68 63 61 60
72 69 68 63 60 60 62 63 64 65 65 66 65 66 68 70 72 73 75 77 78 74 69 63 58 57 58
73 73 72 69 64 64 64 65 65 64 66 65 66 67 70 74 75 77 79 78 77 73 64 60 60 60 60
74 76 75 69 65 66 65 66 65 65 65 66 67 70 73 76 80 83 81 77 69 61 60 63 64 62 61
77 75 71 68 67 67 66 67 67 67 67 68 70 73 76 80 84 83 77 68 61 61 62 62 63 63 62
76 71 69 70 69 67 68 68 69 69 69 71 73 75 79 83 83 76 67 62 62 62 61 61 62 61 60
69 70 70 65 68 70 69 70 71 71 71 71 74 77 80 82 75 67 63 61 61 60 58 56 57 53 49
70 65 65 67 69 70 72 72 72 72 72 73 75 76 76 71 68 63 62 59 54 55 53 49 47 44 36
Wind_Direction
299 301 301 303 306 306 306 304 302 301 300 298 297 298 298 299 301 305 309 310 313 318 326 322 280 225 220
299 299 301 304 306 305 304 302 302 301 300 298 297 296 296 298 300 305 307 309 311 314 310 304 289 246 229
297 299 301 305 305 305 303 302 301 301 300 299 297 297 298 299 301 302 302 303 303 301 299 295 284 261 258
297 298 302 306 306 304 303 301 301 300 299 298 297 297 298 300 300 300 300 299 298 296 293 289 281 272 258
296 298 304 306 304 304 304 303 301 301 300 299 297 297 299 299 299 300 301 303 303 301 296 291 284 275 265
297 300 305 305 304 307 307 305 302 300 299 297 298 298 298 299 298 298 300 300 300 300 299 294 286 280 271
297 301 304 304 300 300 300 300 299 300 300 298 297 297 297 298 298 299 300 300 300 300 300 297 291 282 273
298 300 304 304 300 296 296 297 298 298 297 296 297 298 299 300 301 300 300 300 300 300 301 299 294 289 282
296 300 304 303 302 298 296 296 296 296 296 297 298 299 299 300 300 299 300 301 302 303 302 299 294 288 281
295 300 303 301 301 299 298 297 296 295 295 296 296 297 297 297 299 300 300 302 303 302 300 297 292 286 280
295 299 303 300 301 300 299 298 296 295 295 296 296 295 297 297 298 299 302 304 304 302 300 295 289 284 281
296 298 301 302 299 300 299 299 299 296 295 295 296 296 296 298 299 301 303 304 303 301 297 291 288 285 282
294 299 302 300 298 299 300 300 300 298 297 296 297 297 298 300 301 303 304 303 301 297 293 291 289 286 283
295 300 299 297 298 300 300 301 300 299 297 296 297 299 300 301 301 303 303 301 299 296 294 291 288 286 282
297 297 297 297 298 299 301 300 299 298 297 297 298 299 301 301 302 302 301 301 299 297 295 292 288 284 281
297 297 297 298 299 300 299 299 298 298 297 298 299 301 302 303 303 301 301 301 300 298 296 291 287 284 281
297 296 298 299 299 300 299 298 297 298 299 299 301 302 303 304 302 301 301 301 302 299 295 297 294 289 283